User: anonymous   Login
Location: Unspecified
(0.0000°N, 0.0000°E)
Time: 09:39:19
(UTC+00:00)
Language:

CAT - Orbit

View from above orbital plane
View from above orbital plane
View from above satellite
View from above satellite

Ground track
Ground track

The orbit data is extracted from the following two-line orbital elements,

1 12546U 81057C   17295.72008627 +.00001804 +00000-0 +29502-3 0  9999
2 12546 010.2188 136.9422 6106292 351.3290 001.7130 03.89492144280912
Epoch (UTC): 22 October 2017 17:16:55
Eccentricity: 0.6106292
inclination: 10.2188°
perigee height: 266 km
apogee height: 21105 km
right ascension of ascending node: 136.9422°
argument of perigee: 351.3290°
revolutions per day: 3.89492144
mean anomaly at epoch: 1.7130°
orbit number at epoch: 28091

The dashed part of the orbit path shows where the satellite is in the earth's shadow,  

DLR